Location: Worth Mountain WMA
(34.9569°N, 81.4819°W)
Time: 15:23:07
(UTC-04:00)

H-2A R/B - Pass Details

Date: 18 August 2017
Orbit: 734 x 837 km, 98.4° (Epoch: 23 September)

Event Time Altitude Azimuth Distance (km) Brightness Sun altitude
Exits shadow 22:00:55 24° 64° (ENE) 1,567 3.3 -21.3°
Drops below altitude 10° 22:04:37 10° 17° (NNE) 2,290 4.7 -22.0°
Sets 22:07:16 0° 3° (N) 3,204 5.7 -22.4°
